Temp
99 95 80 80 80 80 80 80 80 80 80 80 80 80 79 79 79 79 80 79 79 80 80 80 80 80 80 80 80 79 79 79 79 80 80 80 80 80 80 80 80 87 80
101 95 80 80 80 80 80 80 80 80 80 80 80 80 79 79 79 79 79 79 79 80 80 80 80 80 80 80 80 79 79 79 79 79 79 80 80 80 80 80 80 82 79
100 94 88 80 80 80 80 80 79 79 79 79 80 79 79 79 79 79 79 79 80 80 80 80 80 80 80 80 80 79 79 79 79 79 79 93 91 80 80 80 79 79 78
99 93 92 80 80 80 79 79 79 79 79 79 79 79 79 79 79 79 79 79 80 80 80 80 80 80 80 80 79 79 79 79 79 80 91 93 93 79 80 80 79 79 78
98 96 92 79 79 80 80 79 79 79 79 79 79 79 79 79 78 78 78 79 80 81 81 80 80 80 80 79 79 78 78 78 78 82 92 92 94 84 80 80 80 79 79
100 98 86 79 79 79 80 79 79 79 78 79 79 79 79 79 78 78 78 79 80 80 81 80 80 79 79 79 78 78 78 78 77 93 92 87 90 79 80 79 79 79 78
101 100 91 79 79 79 80 79 79 79 78 78 79 79 79 78 78 78 78 79 79 80 80 80 79 79 78 78 77 77 77 78 88 95 92 90 91 79 80 79 79 79 78
100 98 92 80 79 79 79 79 78 78 78 78 78 78 78 78 78 78 78 78 79 79 79 79 79 78 77 77 77 77 77 77 88 91 91 92 78 77 79 79 79 78 78
101 98 93 89 84 79 78 78 78 78 77 78 78 77 78 78 77 78 78 78 78 79 79 78 78 77 77 77 77 77 77 77 88 93 92 92 76 77 79 79 79 78 78
100 99 95 91 92 89 88 78 78 78 77 77 77 77 77 77 77 77 76 77 78 78 78 78 77 77 77 76 77 76 77 77 88 92 92 93 77 77 78 79 79 79 78
97 97 98 97 94 93 94 88 79 78 78 77 79 77 77 89 87 86 82 79 78 78 78 77 77 77 76 76 76 76 77 90 93 93 95 78 77 78 79 79 79 79 78
94 97 98 96 94 94 97 93 88 89 89 88 89 88 88 90 91 91 86 78 77 77 77 77 77 77 77 91 89 78 87 92 93 92 94 78 76 78 79 79 79 79 78
97 96 96 92 92 94 96 95 93 93 92 91 89 89 88 91 91 90 92 88 86 80 88 84 84 86 88 91 93 92 93 92 93 93 90 77 76 77 79 79 79 78 78
95 95 92 91 88 88 95 94 94 94 94 93 92 88 88 89 88 89 92 92 88 91 88 89 91 88 88 88 89 90 90 90 92 92 90 77 76 76 78 79 79 78 78
91 93 93 90 86 85 85 91 91 92 93 93 92 88 89 90 88 90 90 91 92 92 91 89 89 89 88 87 88 88 88 88 88 89 90 77 76 76 77 78 78 79 79
86 91 92 90 87 86 85 84 88 89 93 91 92 91 87 90 88 90 88 88 90 91 92 91 89 88 88 87 87 86 86 87 87 86 90 89 76 75 76 77 77 79 80
82 78 86 89 88 85 85 86 85 89 87 90 91 89 87 85 86 85 88 88 90 89 87 87 86 86 85 86 85 87 87 85 87 85 86 88 88 74 75 76 77 77 79
84 79 79 87 89 84 85 84 88 88 87 88 86 85 82 84 84 82 87 87 90 87 88 87 88 87 85 86 86 87 87 86 86 85 86 88 90 90 78 76 76 77 79
84 81 81 77 84 86 83 85 85 86 88 89 88 80 81 84 83 85 88 87 82 86 86 85 86 85 83 85 86 86 86 85 85 87 86 86 86 88 90 77 77 76 77
79 77 81 82 79 80 85 84 83 85 88 89 91 90 86 85 84 83 86 83 79 80 79 81 79 82 86 86 86 86 84 85 86 86 86 88 88 87 88 88 86 84 75
81 79 75 79 77 76 80 82 81 88 86 86 90 88 86 85 84 81 87 82 81 80 75 76 78 78 84 84 82 83 82 82 82 86 88 88 88 88 88 86 84 88 84
78 79 77 78 77 79 80 79 79 83 88 88 89 85 85 84 84 84 84 84 82 82 79 80 79 84 84 84 79 81 77 82 84 84 87 87 86 89 88 86 86 85 85
77 77 77 77 77 78 78 79 77 79 80 85 84 87 86 85 84 84 84 85 82 79 86 80 82 79 84 83 80 80 78 76 84 85 82 85 84 86 87 86 84 84 83
77 77 77 77 76 79 79 79 78 82 80 84 89 91 89 84 84 86 86 82 81 84 84 85 84 82 80 82 80 79 81 82 79 78 83 83 83 82 82 86 85 83 83
75 76 76 75 75 75 76 76 78 78 85 88 89 87 85 85 83 86 86 85 84 85 85 85 82 80 84 82 80 80 79 81 80 80 77 76 82 85 86 84 86 85 83
76 77 75 74 74 76 76 76 74 74 77 82 85 87 89 88 86 84 88 85 84 85 85 84 82 80 79 79 82 82 81 80 80 80 76 80 81 82 85 85 83 84 85
MSLP
1005.06 1006.40 1008.00 1008.57 1009.15 1009.61 1009.87 1010.04 1010.24 1010.54 1010.87 1011.21 1011.56 1011.84 1012.10 1012.40 1012.72 1013.11 1013.37 1013.69 1013.93 1014.10 1014.30 1014.52 1014.70 1014.91 1015.10 1015.21 1015.19 1015.17 1015.13 1015.22 1015.17 1015.18 1015.12 1015.24 1015.34 1015.36 1015.49 1015.60 1015.39 1014.81 1015.76
1004.79 1006.32 1007.93 1008.52 1009.30 1009.62 1009.79 1010.07 1010.40 1010.69 1011.01 1011.32 1011.67 1011.99 1012.29 1012.65 1012.86 1013.21 1013.51 1013.88 1014.09 1014.20 1014.48 1014.62 1014.85 1015.11 1015.09 1015.25 1015.33 1015.38 1015.40 1015.54 1015.45 1015.39 1015.33 1015.25 1015.43 1015.56 1015.73 1015.81 1015.70 1015.67 1015.96
1005.04 1006.22 1007.75 1008.50 1009.23 1009.79 1009.97 1010.21 1010.50 1010.79 1011.14 1011.43 1011.81 1012.22 1012.49 1012.72 1012.95 1013.32 1013.71 1013.89 1014.14 1014.42 1014.63 1014.73 1014.73 1014.77 1014.97 1015.15 1015.27 1015.37 1015.46 1015.60 1015.55 1015.40 1015.26 1014.34 1014.49 1015.45 1015.67 1015.98 1016.04 1016.07 1016.17
1005.47 1006.40 1007.20 1008.43 1009.11 1009.82 1010.19 1010.40 1010.64 1011.04 1011.37 1011.68 1011.99 1012.32 1012.56 1012.79 1013.08 1013.36 1013.74 1014.01 1014.16 1014.37 1014.43 1014.63 1014.88 1014.89 1014.98 1015.08 1015.40 1015.52 1015.52 1015.54 1015.63 1015.33 1014.47 1014.35 1014.46 1015.41 1015.55 1015.57 1016.11 1016.24 1016.27
1005.53 1006.46 1006.97 1008.25 1009.04 1009.85 1010.26 1010.61 1010.76 1011.00 1011.38 1011.66 1012.00 1012.31 1012.60 1012.87 1013.08 1013.37 1013.73 1014.01 1014.17 1014.40 1014.64 1014.71 1015.00 1015.16 1015.22 1015.35 1015.21 1015.38 1015.47 1015.51 1015.59 1015.14 1014.40 1014.47 1014.44 1015.30 1015.72 1015.65 1015.76 1016.11 1016.26
1005.44 1006.14 1007.35 1008.27 1009.01 1009.81 1010.35 1010.71 1011.08 1011.19 1011.45 1011.66 1011.93 1012.30 1012.58 1012.91 1013.12 1013.40 1013.87 1014.31 1014.35 1014.53 1014.82 1014.97 1015.12 1015.54 1015.66 1015.74 1015.67 1015.67 1015.61 1015.67 1015.56 1014.20 1014.58 1014.86 1014.67 1015.50 1015.79 1015.80 1015.73 1015.95 1016.26
1005.12 1005.70 1007.18 1008.20 1008.74 1009.48 1010.20 1010.62 1010.90 1011.24 1011.60 1011.74 1011.95 1012.34 1012.63 1012.89 1013.14 1013.58 1014.02 1014.30 1014.55 1014.70 1014.89 1015.25 1015.50 1015.67 1015.56 1015.69 1015.63 1015.80 1015.88 1015.74 1015.33 1014.37 1014.54 1014.63 1014.47 1015.55 1015.81 1015.89 1015.87 1015.95 1016.19
1005.16 1005.76 1006.88 1008.27 1008.66 1009.35 1010.11 1010.72 1011.16 1011.33 1011.51 1011.77 1012.02 1012.43 1012.71 1012.97 1013.30 1013.60 1013.86 1014.29 1014.51 1014.77 1014.89 1015.16 1015.48 1015.72 1015.92 1015.95 1015.89 1015.75 1015.88 1015.87 1015.12 1014.49 1014.55 1014.51 1015.45 1015.79 1015.86 1015.95 1015.99 1015.99 1016.15
1005.52 1006.25 1007.03 1007.95 1008.69 1009.40 1010.03 1010.65 1011.07 1011.62 1011.85 1011.89 1012.21 1012.41 1013.06 1013.47 1013.74 1013.93 1013.96 1014.25 1014.68 1014.99 1015.05 1015.00 1015.36 1015.67 1015.94 1015.99 1015.97 1016.00 1015.74 1015.53 1014.87 1014.30 1014.37 1014.36 1015.24 1015.66 1015.75 1015.85 1016.01 1016.00 1016.03
1005.78 1006.35 1007.18 1007.74 1008.30 1008.99 1009.75 1010.72 1011.22 1011.59 1012.12 1012.39 1012.49 1012.74 1013.05 1013.63 1013.97 1014.15 1014.20 1014.50 1014.72 1015.14 1015.22 1015.16 1015.25 1015.57 1015.97 1015.92 1016.01 1015.95 1015.98 1015.64 1014.85 1014.07 1014.19 1014.12 1015.14 1015.69 1015.61 1015.66 1015.81 1015.94 1015.97
1005.80 1006.32 1006.86 1007.47 1007.94 1008.49 1009.00 1010.15 1011.12 1011.66 1012.02 1012.41 1012.67 1012.92 1013.27 1013.04 1013.26 1013.73 1013.95 1014.41 1014.91 1015.19 1015.38 1015.43 1015.42 1015.46 1015.68 1015.70 1015.92 1015.88 1016.03 1014.66 1013.68 1013.91 1013.57 1014.60 1015.16 1015.45 1015.52 1015.60 1015.59 1015.81 1015.79
1005.76 1006.21 1006.53 1007.24 1007.71 1008.16 1008.46 1009.17 1010.38 1010.83 1011.34 1011.71 1012.00 1012.30 1012.72 1012.48 1012.48 1012.81 1013.24 1014.27 1014.61 1014.81 1015.44 1015.57 1015.46 1015.43 1015.64 1014.62 1014.55 1015.48 1015.06 1014.11 1013.80 1013.57 1013.45 1014.45 1015.15 1015.27 1015.36 1015.45 1015.46 1015.53 1015.57
1005.43 1006.32 1006.85 1007.42 1007.87 1008.06 1008.11 1008.68 1009.36 1010.02 1010.61 1010.97 1011.36 1011.67 1011.96 1012.05 1012.35 1012.99 1012.74 1013.55 1014.23 1014.68 1014.49 1015.11 1015.16 1015.03 1014.42 1013.99 1013.50 1013.63 1013.60 1013.67 1013.39 1013.20 1013.29 1014.21 1014.87 1014.95 1015.10 1015.21 1015.29 1015.16 1015.26
1005.13 1006.02 1007.10 1007.71 1008.12 1008.37 1007.99 1008.46 1008.62 1009.15 1009.60 1010.14 1010.69 1011.38 1011.49 1011.81 1012.04 1012.32 1012.30 1012.50 1013.26 1013.17 1013.32 1013.67 1013.68 1013.99 1014.08 1014.08 1013.92 1013.61 1013.55 1013.44 1013.11 1013.14 1013.21 1014.03 1014.61 1014.77 1014.79 1014.84 1014.85 1014.75 1014.89
1005.32 1006.04 1006.76 1007.56 1008.16 1008.52 1008.69 1008.36 1008.52 1008.71 1009.14 1009.41 1010.00 1010.82 1011.13 1011.29 1011.62 1011.89 1012.11 1012.27 1012.52 1012.78 1012.98 1013.22 1013.62 1013.65 1013.94 1014.11 1013.87 1013.71 1013.53 1013.39 1013.43 1013.34 1013.18 1013.67 1014.31 1014.54 1014.48 1014.46 1014.50 1014.35 1014.43
1005.94 1006.08 1006.64 1007.16 1007.64 1008.14 1008.37 1008.46 1008.47 1008.79 1008.71 1009.38 1009.65 1010.07 1010.91 1011.01 1011.21 1011.62 1012.20 1012.44 1012.49 1012.64 1012.85 1012.75 1012.89 1013.37 1013.25 1013.26 1013.10 1013.37 1013.35 1013.21 1013.29 1013.25 1012.89 1012.74 1013.63 1014.10 1014.17 1014.05 1014.05 1013.90 1014.01
1006.51 1006.25 1006.78 1006.58 1007.10 1007.47 1007.86 1008.29 1008.55 1008.50 1009.11 1009.02 1009.32 1009.91 1010.52 1011.29 1011.34 1011.86 1011.87 1012.06 1012.02 1012.29 1012.85 1012.75 1012.59 1012.77 1013.28 1013.40 1013.21 1012.84 1013.01 1012.95 1012.82 1012.90 1012.99 1012.64 1012.39 1013.29 1013.60 1013.62 1013.66 1013.59 1013.57
1006.31 1006.26 1007.08 1006.82 1006.46 1006.86 1007.31 1007.62 1007.98 1008.32 1008.80 1008.91 1009.22 1009.75 1010.09 1010.39 1011.18 1011.54 1011.45 1011.43 1011.31 1011.71 1011.91 1012.14 1011.71 1011.66 1012.40 1012.62 1012.60 1012.57 1012.43 1012.46 1012.27 1012.41 1012.46 1012.33 1011.97 1011.94 1012.76 1012.92 1013.10 1013.16 1013.16
1006.59 1007.40 1006.83 1006.61 1006.62 1006.75 1006.60 1007.09 1007.60 1007.86 1008.13 1008.37 1008.60 1009.40 1009.11 1009.58 1010.56 1010.48 1010.48 1010.62 1011.22 1011.37 1011.49 1011.50 1011.28 1011.49 1011.86 1011.95 1011.94 1012.21 1012.09 1012.21 1012.06 1011.70 1011.71 1011.90 1011.96 1011.96 1011.43 1012.10 1012.52 1012.76 1012.75
1006.44 1006.86 1006.71 1007.15 1007.52 1006.95 1006.09 1006.29 1007.24 1007.31 1007.40 1007.74 1007.69 1007.84 1008.74 1009.31 1009.48 1009.69 1009.76 1009.78 1010.64 1010.50 1010.68 1011.27 1011.42 1011.22 1011.08 1011.29 1011.30 1011.50 1011.83 1011.83 1011.49 1011.25 1011.23 1011.25 1011.11 1011.50 1011.56 1011.29 1011.90 1011.68 1012.26
1006.79 1006.77 1006.20 1006.60 1006.75 1006.31 1005.21 1005.02 1005.91 1006.65 1006.55 1007.08 1007.00 1007.05 1007.52 1008.25 1008.74 1008.75 1008.52 1008.98 1009.37 1009.28 1008.58 1008.61 1009.25 1009.97 1010.40 1011.03 1011.40 1011.23 1011.18 1011.37 1011.25 1010.78 1010.68 1010.66 1010.57 1010.73 1010.93 1011.13 1011.46 1010.86 1011.22
1006.78 1007.21 1007.40 1006.61 1005.79 1005.46 1005.38 1005.05 1005.26 1005.62 1005.81 1005.75 1006.22 1006.79 1006.60 1007.05 1007.53 1008.08 1007.69 1007.64 1008.15 1008.78 1008.31 1009.13 1009.37 1009.50 1009.39 1010.37 1010.76 1010.43 1009.92 1009.74 1009.88 1010.18 1010.21 1010.23 1010.42 1010.27 1010.44 1010.66 1010.71 1010.74 1011.08
1006.84 1006.98 1007.03 1007.01 1007.16 1006.78 1006.21 1005.38 1005.87 1005.61 1005.17 1006.03 1005.80 1005.78 1005.40 1005.82 1006.17 1006.51 1006.54 1006.97 1007.38 1008.09 1007.14 1008.32 1008.35 1009.12 1008.70 1009.68 1010.60 1009.86 1009.06 1008.78 1008.22 1008.96 1009.88 1009.80 1010.10 1010.20 1010.04 1010.25 1010.59 1010.63 1010.82
1006.64 1006.85 1006.93 1006.99 1007.04 1006.70 1006.58 1006.34 1006.05 1005.37 1005.39 1005.29 1004.56 1004.31 1004.46 1005.00 1005.13 1005.18 1005.68 1006.42 1006.87 1007.25 1006.66 1006.74 1007.68 1008.31 1008.85 1008.67 1009.67 1009.76 1009.34 1008.71 1008.19 1008.19 1009.01 1009.32 1009.95 1010.35 1010.29 1009.92 1010.19 1010.36 1010.44
1006.87 1006.63 1006.59 1006.39 1006.30 1006.75 1006.63 1006.53 1006.32 1005.91 1005.29 1004.62 1003.90 1003.30 1003.37 1003.77 1004.40 1004.31 1004.81 1005.26 1005.71 1006.12 1005.68 1006.19 1006.94 1007.88 1007.91 1008.54 1008.61 1008.62 1009.15 1008.83 1008.71 1008.38 1007.89 1008.62 1009.08 1009.48 1009.55 1009.91 1009.69 1009.70 1009.99
1006.27 1006.17 1006.05 1005.96 1006.02 1006.06 1006.31 1006.36 1006.17 1005.87 1005.34 1004.26 1003.12 1002.81 1002.44 1002.63 1003.09 1003.57 1003.69 1004.40 1004.74 1005.06 1005.02 1005.81 1006.50 1006.94 1007.80 1008.18 1007.88 1007.90 1007.85 1008.08 1007.86 1008.15 1007.96 1007.60 1007.57 1008.24 1008.90 1009.39 1009.64 1009.50 1009.50
Wind_Speed
13 21 21 18 15 15 15 16 17 17 16 16 16 16 16 15 15 14 14 13 12 11 10 10 9 8 8 8 8 8 9 8 8 8 9 8 7 6 6 4 3 7 6
19 23 21 19 16 16 17 17 17 17 16 17 17 17 16 15 15 14 13 12 11 11 10 10 9 8 8 8 8 7 7 6 7 7 5 8 8 5 3 3 7 8 5
20 22 23 20 17 15 16 17 16 17 16 17 16 15 15 15 15 13 12 12 11 11 10 10 10 10 9 9 9 8 7 6 5 5 5 1 10 6 2 2 2 3 2
18 20 24 21 18 16 15 16 16 16 16 16 16 15 15 15 14 14 13 12 12 12 12 11 11 11 11 10 9 8 7 6 5 7 7 5 4 8 4 5 2 2 2
19 20 21 22 19 16 15 15 16 17 16 17 16 16 16 15 15 14 13 12 13 13 12 12 11 11 11 10 11 9 8 6 5 10 4 3 2 11 3 4 7 5 1
20 21 22 23 20 16 14 14 14 16 16 17 17 17 16 16 15 14 13 11 12 12 12 12 11 9 9 9 8 8 7 5 8 5 3 6 5 10 4 3 2 2 1
20 20 22 23 22 19 15 14 14 15 15 16 16 16 16 16 15 14 13 12 11 11 11 11 10 9 10 10 9 7 5 5 10 3 3 1 4 7 4 3 3 2 2
18 19 21 22 22 19 16 14 13 13 14 15 15 15 15 15 14 14 14 12 12 11 11 11 10 9 8 8 8 7 6 6 7 4 5 3 7 5 5 4 3 2 3
16 16 18 21 20 18 17 15 13 11 11 12 13 13 11 11 11 12 12 12 11 10 11 11 10 9 8 8 8 7 7 7 10 4 6 5 11 6 7 6 4 3 4
14 15 16 18 19 18 17 14 13 12 11 10 10 10 10 9 9 10 9 9 10 10 10 10 10 9 8 8 8 8 8 8 10 5 6 2 6 3 9 9 7 6 4
12 14 15 18 18 17 18 15 12 13 12 10 10 8 9 10 12 13 11 9 9 9 10 9 9 9 9 9 9 9 9 8 7 6 5 11 4 5 7 10 9 7 6
13 15 14 15 17 17 14 15 16 14 13 13 13 13 11 11 9 10 9 8 10 10 9 9 10 10 9 9 9 11 9 10 6 6 5 9 5 7 7 9 10 9 9
15 12 14 12 13 16 14 11 9 10 10 11 15 13 12 9 8 8 6 7 8 11 8 11 10 9 12 9 7 6 8 8 7 6 4 9 7 8 9 7 10 10 10
7 15 14 13 12 13 10 11 11 11 11 10 12 14 9 8 8 7 7 7 7 7 9 8 7 9 10 10 10 10 9 8 6 5 5 10 8 9 9 8 10 11 9
2 8 15 16 15 13 13 10 10 10 11 11 10 12 11 10 9 8 6 6 6 6 6 6 7 6 8 10 10 11 11 10 10 7 6 13 9 11 11 10 12 11 10
5 2 6 14 15 16 14 13 10 9 10 10 10 11 14 10 8 8 7 7 6 6 6 5 5 6 8 9 10 11 11 10 10 10 8 7 13 11 13 12 13 11 11
2 3 7 9 13 15 16 14 10 10 10 11 10 10 10 11 9 8 7 6 6 5 6 7 7 7 8 9 11 9 10 10 10 10 9 8 8 15 14 14 14 13 11
7 7 5 8 8 12 12 10 11 11 10 10 9 9 12 13 12 10 8 8 7 7 7 8 8 6 6 9 9 8 8 8 9 9 8 8 7 7 14 14 14 11 13
6 4 5 6 7 10 10 8 10 11 10 12 11 9 11 14 15 12 10 9 9 6 8 9 6 4 7 8 9 9 8 8 9 8 8 9 8 7 7 14 8 9 12
6 5 6 3 4 7 7 7 6 8 10 12 13 12 14 13 17 14 11 10 11 9 9 5 4 6 7 8 8 9 8 8 9 8 9 9 8 9 9 7 7 10 12
6 7 9 10 7 4 6 4 3 10 8 10 12 16 16 15 17 15 12 12 13 13 13 14 13 10 8 7 8 9 9 11 11 9 8 8 9 9 10 5 7 6 8
8 6 6 8 12 11 6 3 2 5 7 9 11 15 16 18 17 16 14 13 14 10 10 10 7 8 7 8 8 8 8 9 10 10 9 8 9 8 8 9 9 6 7
8 10 7 6 6 6 9 6 5 6 5 11 9 13 14 19 18 19 17 13 12 10 10 10 10 12 10 9 14 8 6 7 1 6 8 8 6 8 7 6 7 7 7
9 9 9 7 6 6 4 7 9 9 10 13 14 13 12 18 20 18 16 16 13 13 9 9 9 11 11 11 9 11 12 8 5 5 5 6 6 7 6 6 6 7 7
7 10 8 9 9 6 6 7 9 12 13 13 13 12 11 12 18 18 17 15 14 12 10 10 12 14 11 12 10 9 11 9 8 9 6 7 7 8 6 7 5 5 6
7 7 9 11 10 9 8 8 10 13 14 13 11 11 11 10 12 17 18 14 13 12 12 12 13 13 13 12 10 10 9 9 8 8 8 9 8 5 5 5 6 6 4
Wind_Direction
158 149 163 161 159 161 161 158 155 155 155 153 152 153 150 149 143 140 142 142 137 135 130 124 121 117 107 101 99 98 96 94 95 90 85 84 89 92 87 81 266 102 90
157 154 163 159 164 167 163 162 159 155 155 155 157 155 151 147 145 144 145 143 141 139 136 133 128 124 117 111 108 103 101 98 94 91 106 129 99 84 88 68 0 71 101
158 158 167 160 166 174 167 163 160 156 157 157 155 155 151 149 148 143 142 144 148 148 146 143 141 138 136 127 122 121 113 114 118 121 224 181 96 91 93 127 61 84 102
158 162 167 164 168 175 171 167 161 159 158 155 155 157 156 153 148 144 150 159 160 159 158 153 154 147 144 143 132 127 131 138 143 191 205 113 93 109 105 140 126 107 132
163 168 166 166 167 176 173 172 165 161 162 159 160 161 160 158 152 154 162 170 168 167 163 160 160 157 153 150 142 146 148 153 191 225 135 112 164 113 123 130 159 178 189
173 171 151 167 167 176 178 175 171 167 166 165 166 166 164 163 158 162 166 173 173 172 170 167 166 165 158 157 149 155 162 176 227 185 151 121 237 110 146 140 77 62 132
178 173 160 171 168 172 182 182 179 175 173 171 170 170 168 168 165 166 169 178 177 174 176 176 172 178 171 170 164 171 182 204 257 196 174 209 132 132 171 156 150 173 212
177 174 166 174 170 171 181 183 190 184 179 179 175 175 177 174 170 171 172 179 183 186 178 180 182 186 186 179 177 176 200 245 223 269 253 213 95 170 194 185 187 180 205
174 180 172 179 176 172 177 182 184 194 193 184 181 176 182 178 175 179 176 184 191 190 191 184 185 191 198 193 192 197 206 229 278 251 260 237 128 191 209 203 201 190 194
182 187 180 184 182 185 183 179 184 188 195 195 187 180 174 175 183 186 180 193 194 198 203 195 190 193 207 205 212 214 229 236 252 245 230 105 119 208 212 211 206 209 205
192 194 191 186 186 190 188 181 180 190 192 191 189 177 171 202 189 187 197 173 202 208 212 208 199 201 209 216 229 228 242 246 240 236 261 107 167 223 216 216 209 213 210
198 199 197 195 188 193 193 187 199 200 206 205 203 195 214 213 208 214 184 167 194 206 220 219 212 208 218 236 202 214 240 256 241 255 252 127 203 227 223 221 216 212 216
197 207 208 199 195 202 198 192 189 203 205 206 211 209 205 210 210 210 200 192 210 198 220 206 213 228 231 242 246 241 238 248 252 244 213 149 213 232 235 231 231 220 219
207 207 205 203 206 208 203 198 198 201 202 207 206 207 213 210 208 220 211 203 200 212 215 233 230 240 242 250 262 264 251 258 259 254 238 157 209 238 244 238 246 231 221
164 214 210 201 204 207 220 206 214 207 204 210 208 201 210 210 209 206 212 221 221 220 223 236 250 261 253 253 255 252 256 254 258 261 265 160 200 237 242 241 241 228 214
318 176 231 215 208 204 206 214 208 217 217 212 217 213 209 221 206 207 204 211 229 233 243 236 250 265 242 250 240 249 255 254 244 250 247 214 190 220 239 238 252 245 216
78 72 299 228 222 209 212 214 214 215 215 218 219 219 207 217 211 223 211 212 222 229 247 239 227 234 261 266 258 255 249 243 246 242 249 250 209 200 219 231 239 249 218
43 30 329 304 206 214 219 208 224 219 221 231 212 218 205 202 216 199 207 210 207 210 225 234 224 215 248 246 259 258 242 248 236 238 245 245 229 255 192 213 226 232 218
16 9 67 335 277 212 205 226 230 242 223 233 217 209 208 201 202 210 206 205 201 223 226 231 237 221 244 251 264 253 250 250 240 231 240 229 237 255 250 166 190 226 221
6 11 3 30 226 253 186 181 237 229 236 237 229 227 214 209 203 199 208 200 204 195 201 240 231 228 236 262 267 255 255 247 240 235 231 233 231 230 236 244 226 203 200
6 350 2 340 331 290 234 165 219 248 222 246 242 226 214 210 208 199 206 200 205 206 205 186 185 194 227 232 262 248 248 238 248 245 229 237 234 224 247 239 245 252 190
339 359 340 342 346 336 319 175 147 285 265 253 238 229 212 206 206 207 210 206 209 212 191 192 187 223 213 220 235 242 262 212 218 224 246 234 245 249 226 229 259 256 261
342 342 346 346 324 307 314 327 296 295 289 269 233 231 217 212 204 212 204 209 206 224 187 200 200 213 221 215 218 234 231 239 191 155 220 242 230 241 249 238 251 244 231
337 334 328 331 324 276 266 255 248 250 237 231 240 228 219 211 213 213 203 204 208 214 205 194 203 217 221 228 206 231 257 284 223 205 197 203 227 239 228 243 217 230 241
326 322 325 322 322 299 277 255 254 240 244 242 246 244 219 205 219 218 208 208 207 219 203 210 199 208 209 236 208 203 222 225 238 265 240 198 201 230 227 212 254 241 206
320 326 328 323 313 304 283 270 252 254 263 268 254 248 238 224 211 216 212 212 213 215 212 205 209 203 220 219 227 225 212 217 223 234 239 253 259 161 211 230 212 228 230